Regional Weather Roundup
Issued by NWS

Home | Current Version | Previous Version | Text Only | Print | Product List | Glossary Off
Versions: 1 2 3 4 5 6 7 8 9 10 11 12 13 14 15 16 17 18 19 20 21 22 23 24 25 26 27

000
ASUS45 KCYS 231010
RWRWY

WYOMING REGIONAL WEATHER ROUNDUP
NATIONAL WEATHER SERVICE CHEYENNE WY
400 AM MDT WED AUG 23 2017

NOTE:  "FAIR" INDICATES FEW OR NO CLOUDS BELOW 12,000 FEET
WITH NO SIGNIFICANT WEATHER AND/OR OBSTRUCTIONS TO VISIBILITY.

WYZ001-231100-
YELLOWSTONE NATIONAL PARK

CITY           SKY/WX    TMP DP  RH WIND       PRES   REMARKS
LK YELLOWSTONE   N/A     38  34  85 NW3       30.39S
W YELLOWSTONE  NOT AVBL

$$
WYZ002>013-054>058-071-098>099-231100-
NORTHERN WYOMING

CITY           SKY/WX    TMP DP  RH WIND       PRES   REMARKS
JACKSON        FAIR      43  31  62 NE5       30.32R
CODY           NOT AVBL
GREYBULL       FAIR      57  37  47 CALM      30.08S
WORLAND        FAIR      53  35  50 S7        30.10S
SHERIDAN       FAIR      53  41  63 CALM      30.07F
BUFFALO        FAIR      64  32  30 SW7       30.14F
GILLETTE       FAIR      48  38  68 SW3       30.11S
HULETT         FAIR      55  45  67 S5        30.11F
NEWCASTLE      FAIR      61  45  55 CALM      30.12F

$$
WYZ014>020-022>026-101>103-231100-
CENTRAL WYOMING

CITY           SKY/WX    TMP DP  RH WIND       PRES   REMARKS
BIG PINEY      FAIR      46  29  51 E6        30.33S
PINEDALE       FAIR      41  32  70 W7        30.34S
DUBOIS         FAIR      48  27  43 NW10      30.33S
LANDER           N/A    N/A N/A N/A MISG      30.19S
RIVERTON       FAIR      55  36  48 NW10      30.20R
CASPER         FAIR      48  38  68 CALM      30.18F
DOUGLAS        FAIR      55  50  83 SE3       30.16F

$$
WYZ021-027>030-104>119-231100-
SOUTHERN WYOMING

CITY           SKY/WX    TMP DP  RH WIND       PRES   REMARKS
EVANSTON       CLOUDY    59  44  57 CALM      30.34F
KEMMERER         N/A     55  36  47 CALM      30.36S
FORT BRIDGER   CLOUDY    64  40  41 W12       30.36S
ROCK SPRINGS   FAIR      61  37  41 S9        30.30S
DIXON          FAIR      53  37  53 E5        30.34F
RAWLINS        NOT AVBL
SARATOGA       FAIR      55  36  47 NE3       30.34S
LARAMIE        FAIR      50  38  63 SE8       30.32F
CHEYENNE       FAIR      56  45  66 CALM      30.23S
TORRINGTON     FAIR      55  52  89 E7        30.12F
PINE BLUFFS    FAIR      46  46 100 CALM      30.19F

$$




USA.gov is the U.S. government's official web portal to all federal, state and local government web resources and services.